This demonstration page uses our WeatherBlox Daily Observations layout. Learn more.

Left ArrowRight Arrow

53.62937, 11.41316

Hourly Observations for October 17, 2015

Temp ( °F °C ) Dew Point ( °F °C ) Humidity (%) Winds ( mph kmh ) Pressure ( in mb ) Visibility ( mi km ) Precip ( " mm )
5:50 am 05:50 Cloudy with Light Rain 46 8 46 8 100 100 N 2 4 30.03 1017 1 2 N/A
6:20 am 06:20 Cloudy with Light Rain 46 8 46 8 100 100 VRB 1 2 30.00 1016 2 3 N/A
6:50 am 06:50 Cloudy with Mist and Fog 46 8 46 8 100 100 VRB 1 2 30.03 1017 2 4 N/A
7:20 am 07:20 Cloudy with Mist and Fog 46 8 46 8 100 100 VRB 1 2 30.03 1017 2 3 N/A
7:50 am 07:50 Cloudy with Drizzle 46 8 46 8 100 100 Calm 30.03 1017 1 2 N/A
8:20 am 08:20 Cloudy with Drizzle 46 8 46 8 100 100 VRB 1 2 30.03 1017 1 2 N/A
8:50 am 08:50 Cloudy with Mist and Fog 46 8 46 8 100 100 Calm 30.03 1017 1 2 N/A
9:20 am 09:20 Cloudy with Mist and Fog 46 8 46 8 100 100 VRB 1 2 30.03 1017 2 3 N/A
9:50 am 09:50 Cloudy with Mist and Fog 46 8 46 8 100 100 VRB 1 2 30.06 1018 2 4 N/A
10:20 am 10:20 Cloudy with Mist and Fog 46 8 46 8 100 100 VRB 1 2 30.06 1018 2 3 N/A
10:50 am 10:50 Cloudy with Mist and Fog 48 9 46 8 94 94 VRB 2 4 30.06 1018 3 4 N/A
11:20 am 11:20 Cloudy 48 9 46 8 94 94 VRB 2 4 30.06 1018 4 7 N/A
11:50 am 11:50 Cloudy 48 9 46 8 94 94 WSW 3 6 30.06 1018 5 8 N/A
12:20 pm 12:20 Cloudy with Mist and Fog 48 9 46 8 94 94 W 3 6 30.06 1018 3 4 N/A
12:50 pm 12:50 Cloudy 48 9 46 8 94 94 WSW 5 7 30.06 1018 4 7 N/A
1:20 pm 13:20 Cloudy 48 9 46 8 94 94 WSW 6 9 30.06 1018 4 7 N/A
1:50 pm 13:50 Cloudy 48 9 46 8 94 94 WSW 5 7 30.06 1018 5 8 N/A
2:20 pm 14:20 Cloudy 48 9 46 8 94 94 W 5 7 30.06 1018 5 8 N/A
2:50 pm 14:50 Cloudy 50 10 48 9 94 94 W 6 9 30.06 1018 5 8 N/A
3:20 pm 15:20 Cloudy 50 10 48 9 94 94 WSW 6 9 30.06 1018 4 7 N/A
3:50 pm 15:50 Cloudy 48 9 46 8 94 94 WSW 6 9 30.03 1017 4 7 N/A
4:20 pm 16:20 Cloudy 48 9 48 9 100 100 WSW 6 9 30.03 1017 4 6 N/A
4:50 pm 16:50 Cloudy with Mist and Fog 48 9 46 8 94 94 WSW 5 7 30.06 1018 2 4 N/A
5:20 pm 17:20 Cloudy with Mist and Fog 48 9 46 8 94 94 WSW 6 9 30.06 1018 2 4 N/A
5:50 pm 17:50 Cloudy with Mist and Fog 48 9 46 8 94 94 SW 7 11 30.06 1018 2 4 N/A
6:20 pm 18:20 Cloudy with Mist and Fog 48 9 46 8 94 94 SW 9 15 30.06 1018 2 4 N/A
6:50 pm 18:50 Cloudy with Mist and Fog 48 9 46 8 94 94 SW 10 17 30.06 1018 2 4 N/A

Powered by AerisWeather